Location: Brahman Valley
(40.6513°N, 111.8855°W)
Time: 22:30:47
(UTC+00:00)

Vanguard 2 - Pass Details

Date: 20 May 2021
Orbit: 552 x 2937 km, 32.9° (Epoch: 14 June)

Event Time Altitude Azimuth Distance (km) Brightness Sun altitude
Rises 14:00:14 0° 266° (W) 4,256 10.7 19.6°
Reaches altitude 10° 14:02:43 10° 262° (W) 3,547 10.4 20.1°
Maximum altitude 14:12:02 55° 187° (S) 2,323 10.1 21.8°
Drops below altitude 10° 14:26:48 10° 116° (ESE) 5,445 12.9 24.6°
Sets 14:31:40 0° 113° (ESE) 6,648 13.3 25.5°
